Weather History for Debrecen, Hungary

Change the Weather History Date:

Wednesday, October 3, 2012

  Actual Average Record
Temperature  
Mean Temperature 62 °F -  
Max Temperature 65 °F 60 °F - ()
Min Temperature 58 °F 41 °F - ()
Degree Days  
Heating Degree Days 3    
Growing Degree Days 12 (Base 50)    
Moisture  
Dew Point 57 °F    
Average Humidity 88    
Maximum Humidity 100    
Minimum Humidity 68    
Precipitation  
Precipitation 0.00 in 0.04 in - ()
Sea Level Pressure  
Sea Level Pressure 30.02 in    
Wind  
Wind Speed 9 mph ()    
Max Wind Speed 15 mph    
Max Gust Speed -    
Visibility 3.7 miles    
Events Fog , Rain    
T = Trace of Precipitation, MM = Missing Value Source: Averaged Metar Reports

Daily Weather History Graph

Daily Weather History Graph

Search for Another Location

Airport:

Trip Planner

Search our weather history database for the weather conditions in past years. The results will help you decide how hot, cold, wet, or windy it might be!

Date:

Astronomy

Oct. 03, 2012 Rise Set
Actual Time 6:35 AM CEST 6:08 PM CEST
Civil Twilight 6:04 AM CEST 6:39 PM CEST
Nautical Twilight 5:29 AM CEST 7:14 PM CEST
Astronomical Twilight 4:53 AM CEST 7:50 PM CEST
Moon 7:31 PM CEST (10/3) 9:57 AM CEST (10/3)
Length of Visible Light 12h 34m
Length of Day
11h 33m
Waning Gibbous, 90% of the Moon is Illuminated
Oct 3
Waning Gibbous
Oct 8
Last Quarter
Oct 15
New
Oct 22
First Quarter
Oct 29
Full

Hourly Weather History & Observations

Time (CEST) Temp. Dew Point Humidity Pressure Visibility Wind Dir Wind Speed Gust Speed Precip Events Conditions
2:00 AM 61 °F 60 °F 96% 29.99 in - SSW 2.2 mph - -  
4:45 AM 59.0 °F 59.0 °F 100% 29.98 in 1.9 mi SSW 8.1 mph - N/A   Overcast
5:45 AM 60.8 °F 59.0 °F 94% 29.98 in 1.9 mi SSW 10.4 mph - N/A   Overcast
5:52 AM 60.8 °F 59.0 °F 94% 29.98 in - SSW 11.5 mph - N/A   Unknown
6:14 AM 60.8 °F 59.0 °F 94% 29.98 in 0.9 mi SSW 10.4 mph - N/A   Light Drizzle
6:15 AM 60.8 °F 59.0 °F 94% 29.98 in 0.9 mi SSW 10.4 mph - N/A   Light Drizzle
6:45 AM 59.0 °F 59.0 °F 100% 29.98 in 0.7 mi South 11.5 mph - N/A   Light Drizzle
7:00 AM - - N/A% - 0.9 mi SSW 10.4 mph - N/A   Light Drizzle
7:15 AM 59.0 °F 59.0 °F 100% 30.01 in 0.7 mi SSW 12.7 mph - N/A   Light Drizzle
7:45 AM 59.0 °F 59.0 °F 100% 30.01 in 0.5 mi SSW 15.0 mph - N/A   Light Drizzle
7:49 AM 59.0 °F 59.0 °F 100% 30.01 in 0.5 mi SSW 13.8 mph - N/A   Light Drizzle
8:00 AM 59 °F 58 °F 97% 30.00 in 0 mi SSW 13.4 mph - - Rain Light Drizzle
8:15 AM 59.0 °F 57.2 °F 94% 30.01 in 0.6 mi SSW 13.8 mph - N/A Fog Fog
8:45 AM 59.0 °F 57.2 °F 94% 30.01 in 0.9 mi South 11.5 mph - N/A   Overcast
8:46 AM 59.0 °F 57.2 °F 94% 30.04 in 0.9 mi South 12.7 mph - N/A   Overcast
9:15 AM 59.0 °F 57.2 °F 94% 30.04 in 1.1 mi SSW 11.5 mph - N/A   Overcast
9:45 AM 59.0 °F 57.2 °F 94% 30.04 in 1.2 mi South 11.5 mph - N/A   Overcast
10:00 AM - - N/A% - 1.9 mi SSW 13.8 mph - N/A   Scattered Clouds
10:15 AM 59.0 °F 57.2 °F 94% 30.04 in 1.6 mi SSW 11.5 mph - N/A   Mostly Cloudy
10:45 AM 59.0 °F 57.2 °F 94% 30.04 in 2.5 mi SSW 12.7 mph - N/A   Mostly Cloudy
11:15 AM 60.8 °F 57.2 °F 88% 30.04 in 4.3 mi SSW 15.0 mph - N/A   Mostly Cloudy
11:45 AM 59.0 °F 57.2 °F 94% 30.06 in 4.3 mi SSW 10.4 mph - N/A   Mostly Cloudy
12:15 PM 59.0 °F 57.2 °F 94% 30.06 in 4.3 mi SW 12.7 mph - N/A   Mostly Cloudy
12:45 PM 60.8 °F 57.2 °F 88% 30.04 in 5.0 mi SSW 12.7 mph - N/A   Overcast
1:00 PM - - N/A% - 6.2 mi SSW 13.8 mph - N/A   Mostly Cloudy
1:15 PM 62.6 °F 55.4 °F 77% 30.04 in 5.0 mi SW 13.8 mph - N/A   Overcast
1:45 PM 62.6 °F 55.4 °F 77% 30.04 in 6.2 mi SW 11.5 mph - N/A   Overcast
2:00 PM 63 °F 56 °F 71% 30.03 in 6 mi SW 11.2 mph - -   Partly Cloudy
2:15 PM 62.6 °F 55.4 °F 77% 30.04 in 6.2 mi SW 11.5 mph - N/A   Overcast
2:45 PM 64.4 °F 57.2 °F 77% 30.04 in 6.2 mi SW 9.2 mph - N/A   Mostly Cloudy
3:15 PM 64.4 °F 55.4 °F 73% 30.04 in 6.2 mi SW 10.4 mph - N/A   Mostly Cloudy
3:45 PM 64.4 °F 55.4 °F 73% 30.04 in 6.2 mi WSW 8.1 mph - N/A   Mostly Cloudy
4:00 PM - - N/A% - 6.2 mi SW 11.5 mph - N/A   Mostly Cloudy
4:15 PM 66.2 °F 57.2 °F 73% 30.04 in 6.2 mi WSW 6.9 mph - N/A   Mostly Cloudy
4:45 PM 66.2 °F 55.4 °F 68% 30.04 in 6.2 mi WSW 8.1 mph - N/A   Mostly Cloudy
5:15 PM 64.4 °F 55.4 °F 73% 30.04 in 6.2 mi West 2.3 mph - N/A   Mostly Cloudy
6:15 PM 64.4 °F 57.2 °F 77% 30.04 in 6.2 mi SSW 1.2 mph - N/A   Scattered Clouds
6:45 PM 62.6 °F 57.2 °F 82% 30.04 in 6.2 mi SSE 3.5 mph - N/A   Scattered Clouds
7:15 PM 60.8 °F 57.2 °F 88% 30.04 in 6.2 mi SSE 4.6 mph - N/A   Scattered Clouds
7:45 PM 59.0 °F 57.2 °F 94% 30.04 in 6.2 mi East 1.2 mph - N/A   Scattered Clouds
8:00 PM 59 °F 56 °F 88% 30.04 in 9 mi East 2.2 mph - -   Partly Cloudy
8:25 PM - - N/A% - - North - - N/A   Unknown